"Pseudo-MPEC" for C2TAYV2

Created 2020 May 23 11:07:04 UT using Find_Orb

Click here for an explanation of pseudo-MPECs

 
 Astrometry: 
     C2TAYV2  C2020 05 18.37739 16 22 35.35 +22 36 18.5    ~5I9q 21.3 GVNEOCPG96
     C2TAYV2  C2020 05 18.38212 16 22 37.67 +22 37 02.5    ~5I9q 21.7 GVNEOCPG96
     C2TAYV2  C2020 05 18.38685 16 22 39.97 +22 37 46.4    ~5I9q 21.6 GVNEOCPG96
     C2TAYV2  C2020 05 18.39158 16 22 42.26 +22 38 29.9    ~5I9q       VNEOCPG96
     C2TAYV2  C2020 05 18.44929 16 23 11.08 +22 47 28.4    ~5IBM 21.4 GVNEOCPV06
     C2TAYV2  C2020 05 18.45285 16 23 12.87 +22 48 01.4    ~5IBM 21.6 GVNEOCPV06
     C2TAYV2  C2020 05 18.45640 16 23 14.68 +22 48 34.9    ~5IBM 21.4 GVNEOCPV06
     C2TAYV2  C2020 05 18.45996 16 23 16.46 +22 49 07.7    ~5IBM 22.6 GVNEOCPV06

Station data:
(G96) Mt. Lemmon Survey  (N32.442754 W110.788720)  US/Arizona.  Observers T.
   A. Pruyne, B. M. Africano, E. J. Christensen, G. A. Farneth, D. C. Fuls,
   A. R. Gibbs, A. D. Grauer, H. Gröller, J. A. Johnson, R. A. Kowalski, S.
   M. Larson, G. J. Leonard, D. Rankin, R. L. Seaman, F. C. Shelly. 1.5-m
   reflector + 10K CCD.
(V06) Catalina Sky Survey-Kuiper  (N32.416847 W110.732550)  US/Arizona.
   Observers T. A. Pruyne, B. M. Africano, E. J. Christensen, G. A. Farneth,
   D. C. Fuls, A. R. Gibbs, A. D. Grauer, H. Gröller, J. A. Johnson, R. A.
   Kowalski, S. M. Larson, G. J. Leonard, D. Rankin, R. L. Seaman, F. C.
   Shelly. 1.55-m reflector + CCD.

Orbital elements:  C2TAYV2
   Perihelion 2020 Jul 6.745904 +/- 12.5 TT = 17:54:06 (JD 2459037.245904)
Epoch 2020 May 18.0 TT = JDT 2458987.5   Earth MOID: 0.0250   Ma: 0.0715
M 335.13669397 +/- 9                (J2000 ecliptic)          AutoNEOCP
n   0.49980609 +/- 0.223            Peri.  218.48146 +/- 90
a   1.57253993 +/- 0.467            Node    81.41371 +/- 60
e   0.4401614 +/- 0.194             Incl.    5.16121 +/- 3.7
P   1.97/720.27d           H 26.5   G  0.15   U 11.7  SR
q 0.88036851 +/- 0.0908    Q 2.26471136 +/- 2.84
From 8 observations 2020 May 18 (2.0 hr); mean residual 0".27
Residuals in arcseconds: 
200518 G96  .02-  .31+    200518 G96  .31-  .61-    200518 V06  .08+  .28+    
200518 G96  .19+  .20+    200518 V06  .41+  .04+    200518 V06  .49-  .09-    
200518 G96  .04+  .01-    200518 V06  .11+  .13-    

Ephemerides (geocentric):
Date (UTC) HH   RA              Dec         delta   r     elong  mag " sig PA
---- -- -- --  -------------   -----------  ------ ------ -----  --- ---- ---
2020 05 23 11  18 10 20.554   +44 17 14.45  .03172 1.0233 108.7 21.5  23d 170
2020 05 23 12  18 12 16.573   +44 31 54.45  .03159 1.0230 108.3 21.5  23d 171
2020 05 23 13  18 14 14.533   +44 46 34.14  .03146 1.0228 107.9 21.5  23d 172
2020 05 23 14  18 16 14.465   +45 01 13.20  .03134 1.0226 107.6 21.5  23d 173
2020 05 23 15  18 18 16.401   +45 15 51.30  .03121 1.0223 107.2 21.5  24d 173
2020 05 23 16  18 20 20.371   +45 30 28.08  .03109 1.0221 106.8 21.6  24d 174
2020 05 23 17  18 22 26.406   +45 45 03.19  .03096 1.0218 106.4 21.6  24d 175
2020 05 23 18  18 24 34.537   +45 59 36.26  .03084 1.0216 106.0 21.6  24d 176
2020 05 23 19  18 26 44.794   +46 14 06.90  .03073 1.0214 105.6 21.6  25d 176
2020 05 23 20  18 28 57.207   +46 28 34.71  .03061 1.0211 105.2 21.6  25d 177
2020 05 23 21  18 31 11.804   +46 42 59.28  .03049 1.0209 104.8 21.6  25d 178
2020 05 23 22  18 33 28.614   +46 57 20.18  .03038 1.0207 104.3 21.6  25d 178
2020 05 23 23  18 35 47.664   +47 11 36.98  .03027 1.0204 103.9 21.6  25d 179
2020 05 24 00  18 38 08.981   +47 25 49.21  .03016 1.0202 103.5 21.6  25d   0
2020 05 24 01  18 40 32.591   +47 39 56.43  .03006 1.0200 103.1 21.6  25d   0
2020 05 24 02  18 42 58.517   +47 53 58.15  .02995 1.0197 102.7 21.6  26d   1
2020 05 24 03  18 45 26.783   +48 07 53.87  .02985 1.0195 102.2 21.6  26d   1
2020 05 24 04  18 47 57.410   +48 21 43.11  .02975 1.0193 101.8 21.6  26d   2
2020 05 24 05  18 50 30.419   +48 35 25.33  .02965 1.0190 101.4 21.6  26d   3
2020 05 24 06  18 53 05.828   +48 49 00.02  .02955 1.0188 100.9 21.6  26d   3
2020 05 24 07  18 55 43.653   +49 02 26.64  .02946 1.0186 100.5 21.6  26d   4
2020 05 24 08  18 58 23.909   +49 15 44.64  .02936 1.0183 100.1 21.6  26d   4
2020 05 24 09  19 01 06.608   +49 28 53.45  .02927 1.0181  99.6 21.7  26d   5
2020 05 24 10  19 03 51.761   +49 41 52.51  .02919 1.0179  99.2 21.7  26d   5
2020 05 24 11  19 06 39.374   +49 54 41.23  .02910 1.0176  98.7 21.7  26d   6
2020 05 24 12  19 09 29.452   +50 07 19.04  .02902 1.0174  98.3 21.7  26d   6
2020 05 24 13  19 12 21.999   +50 19 45.33  .02893 1.0172  97.8 21.7  26d   7
2020 05 24 14  19 15 17.011   +50 31 59.50  .02885 1.0169  97.4 21.7  26d   7
2020 05 24 15  19 18 14.485   +50 44 00.94  .02878 1.0167  96.9 21.7  26d   8
2020 05 24 16  19 21 14.413   +50 55 49.04  .02870 1.0165  96.4 21.7  26d   8
2020 05 24 17  19 24 16.784   +51 07 23.17  .02863 1.0163  96.0 21.7  27d   9
2020 05 24 18  19 27 21.583   +51 18 42.73  .02856 1.0160  95.5 21.7  27d   9
2020 05 24 19  19 30 28.791   +51 29 47.07  .02849 1.0158  95.0 21.8  27d   9
2020 05 24 20  19 33 38.385   +51 40 35.59  .02843 1.0156  94.6 21.8  27d  10
2020 05 24 21  19 36 50.337   +51 51 07.66  .02836 1.0153  94.1 21.8  27d  10
2020 05 24 22  19 40 04.616   +52 01 22.65  .02830 1.0151  93.6 21.8  27d  10
2020 05 24 23  19 43 21.187   +52 11 19.96  .02824 1.0149  93.2 21.8  27d  11
2020 05 25 00  19 46 40.008   +52 20 58.97  .02819 1.0146  92.7 21.8  27d  11
2020 05 25 01  19 50 01.034   +52 30 19.07  .02813 1.0144  92.2 21.8  27d  12
2020 05 25 02  19 53 24.215   +52 39 19.67  .02808 1.0142  91.7 21.9  27d  12
2020 05 25 03  19 56 49.496   +52 48 00.20  .02803 1.0139  91.2 21.9  27d  12
2020 05 25 04  20 00 16.818   +52 56 20.06  .02799 1.0137  90.8 21.9  27d  13
2020 05 25 05  20 03 46.116   +53 04 18.71  .02794 1.0135  90.3 21.9  27d  13
2020 05 25 06  20 07 17.320   +53 11 55.60  .02790 1.0132  89.8 21.9  27d  13
2020 05 25 07  20 10 50.356   +53 19 10.21  .02786 1.0130  89.3 21.9  27d  13
2020 05 25 08  20 14 25.145   +53 26 02.02  .02783 1.0128  88.8 21.9  27d  14
2020 05 25 09  20 18 01.603   +53 32 30.56  .02780 1.0126  88.3 22.0  27d  14
2020 05 25 10  20 21 39.641   +53 38 35.35  .02776 1.0123  87.8 22.0  27d  14